CW2751 Weather Reports


Display with metric or nautical units.
time (UTC)temp
F
wind
direction
speed
MPH
gust
MPH
rain 1hr
in
rain 24hr
in
rain mn
in
humidity
%
barometer
mb
20260509224535 79 39 7.0 0.0 0.00 0.00 0.00 24 1000.8
20260509223048 79 20 10.0 0.0 0.00 0.00 0.00 23 1000.9
20260509221558 80 32 9.0 0.0 0.00 0.00 0.00 23 1000.7
20260509220016 79 337 9.0 0.0 0.00 0.00 0.00 24 1000.6
20260509214515 80 326 9.0 0.0 0.00 0.00 0.00 24 1000.6
20260509213059 80 11 10.0 0.0 0.00 0.00 0.00 26 1000.7
20260509213001 80 326 11.0 0.0 0.00 0.00 0.00 26 1000.8
20260509211534 80 342 10.0 0.0 0.00 0.00 0.00 26 1000.8
20260509210057 80 323 9.0 0.0 0.00 0.00 0.00 25 1000.7
20260509204551 79 327 11.0 0.0 0.00 0.00 0.00 26 1000.8
20260509203059 79 0 9.0 0.0 0.00 0.00 0.00 26 1000.8
20260509201505 79 10 10.0 0.0 0.00 0.00 0.00 26 1000.5
20260509200015 79 336 10.0 0.0 0.00 0.00 0.00 26 1000.5
20260509194549 78 351 9.0 0.0 0.00 0.00 0.00 26 1000.5
20260509193055 78 325 10.0 0.0 0.00 0.00 0.00 27 1000.4
20260509191557 78 305 9.0 0.0 0.00 0.00 0.00 26 1000.3
20260509190111 79 326 8.0 0.0 0.00 0.00 0.00 25 1000.1
20260509190007 79 316 8.0 0.0 0.00 0.00 0.00 25 999.9
20260509184635 79 309 8.0 0.0 0.00 0.00 0.00 24 999.9
20260509183046 78 277 8.0 0.0 0.00 0.00 0.00 23 1000.2
20260509181556 77 326 8.0 0.0 0.00 0.00 0.00 24 1000.1
20260509180104 78 289 7.0 0.0 0.00 0.00 0.00 25 1000.0
20260509180001 78 319 8.0 0.0 0.00 0.00 0.00 25 1000.2
20260509174523 77 323 7.0 0.0 0.00 0.00 0.00 25 1000.2
20260509173017 77 277 8.0 0.0 0.00 0.00 0.00 24 1000.4
20260509171529 76 260 9.0 0.0 0.00 0.00 0.00 24 1000.5
20260509170025 76 288 7.0 0.0 0.00 0.00 0.00 26 1000.5
20260509164521 74 254 7.0 0.0 0.00 0.00 0.00 28 1000.5
20260509163051 73 226 9.0 0.0 0.00 0.00 0.00 29 1000.8
20260509161552 72 216 10.0 0.0 0.00 0.00 0.00 30 1000.9
20260509160010 72 199 10.0 0.0 0.00 0.00 0.00 30 1000.8
20260509154540 70 214 10.0 0.0 0.00 0.00 0.00 31 1001.2
20260509153046 69 251 11.0 0.0 0.00 0.00 0.00 32 1001.4
20260509151508 67 209 11.0 0.0 0.00 0.00 0.00 38 1001.8
20260509150015 65 175 11.0 0.0 0.00 0.00 0.00 38 1001.9
20260509144535 64 234 10.0 0.0 0.00 0.00 0.00 40 1001.9
20260509143049 63 200 9.0 0.0 0.00 0.00 0.00 42 1002.6
20260509141548 61 206 7.0 0.0 0.00 0.00 0.00 47 1003.0
20260509140052 60 196 10.0 0.0 0.00 0.00 0.00 47 1002.5
20260509134554 59 190 10.0 0.0 0.00 0.00 0.00 48 1002.7
20260509133106 59 223 8.0 0.0 0.00 0.00 0.00 49 1002.9
20260509133002 58 258 8.0 0.0 0.00 0.00 0.00 49 1002.8
20260509131534 58 241 10.0 0.0 0.00 0.00 0.00 48 1002.8
20260509130035 57 198 7.0 0.0 0.00 0.00 0.00 51 1002.3
20260509124547 57 198 9.0 0.0 0.00 0.00 0.00 51 1002.3
20260509123046 56 176 8.0 0.0 0.00 0.00 0.00 52 1002.4
20260509121559 56 210 8.0 0.0 0.00 0.00 0.00 52 1002.3
20260509120017 56 195 8.0 0.0 0.00 0.00 0.00 52 1001.9
20260509114556 56 190 8.0 0.0 0.00 0.00 0.00 53 1001.6
20260509113014 55 248 8.0 0.0 0.00 0.00 0.00 55 1001.5
20260509111515 55 250 7.0 0.0 0.00 0.00 0.00 56 1001.8
20260509110045 55 222 7.0 0.0 0.00 0.00 0.00 56 1001.8
20260509104519 54 231 8.0 0.0 0.00 0.00 0.00 56 1001.8
20260509103041 55 265 8.0 0.0 0.00 0.00 0.00 55 1002.2
20260509101547 55 210 9.0 0.0 0.00 0.00 0.00 54 1002.1
20260509100049 55 227 7.0 0.0 0.00 0.00 0.00 53 1002.3
20260509094525 54 214 9.0 0.0 0.00 0.00 0.00 55 1002.6
20260509093027 54 233 8.0 0.0 0.00 0.00 0.00 54 1002.7
20260509091524 54 227 7.0 0.0 0.00 0.00 0.00 53 1002.4
20260509090053 55 216 6.0 0.0 0.00 0.00 0.00 52 1002.7
20260509084534 54 279 6.0 0.0 0.00 0.00 0.00 52 1002.7
20260509083046 55 231 6.0 0.0 0.00 0.00 0.00 52 1002.7
20260509081547 56 236 7.0 0.0 0.00 0.00 0.00 49 1002.6
20260509080013 56 234 6.0 0.0 0.00 0.00 0.00 48 1002.6
20260509074540 55 238 5.0 0.0 0.00 0.00 0.00 48 1002.8
20260509073044 56 241 5.0 0.0 0.00 0.00 0.00 48 1003.0
20260509071553 56 238 4.0 0.0 0.00 0.00 0.00 47 1003.0
20260509070003 56 224 4.0 0.0 0.00 0.00 0.00 46 1003.6
20260509064508 55 240 4.0 0.0 0.00 0.00 0.00 48 1003.6
20260509063041 55 220 3.0 0.0 0.00 0.00 0.00 51 1003.8
20260509061508 55 237 2.0 0.0 0.00 0.00 0.00 50 1003.9
20260509060036 56 223 1.0 0.0 0.00 0.00 0.00 48 1003.9
20260509054536 56 230 2.0 0.0 0.00 0.00 0.00 47 1004.0
20260509053046 57 220 2.0 0.0 0.00 0.00 0.00 45 1004.1
20260509051551 57 231 3.0 0.0 0.00 0.00 0.00 45 1004.4
20260509050058 57 214 2.0 0.0 0.00 0.00 0.00 46 1004.7
20260509044559 57 234 2.0 0.0 0.00 0.00 0.00 46 1004.8
20260509043103 57 234 2.0 0.0 0.00 0.00 0.00 46 1004.4
20260509041504 57 234 2.0 0.0 0.00 0.00 0.00 47 1005.0
20260509040008 58 234 2.0 0.0 0.00 0.00 0.00 46 1005.0
20260509034523 58 234 3.0 0.0 0.00 0.00 0.00 46 1004.8
20260509033048 59 231 2.0 0.0 0.00 0.00 0.00 46 1004.6
20260509031533 60 222 1.0 0.0 0.00 0.00 0.00 46 1004.6
20260509030027 61 350 2.0 0.0 0.00 0.00 0.00 43 1004.9
20260509024533 62 350 1.0 0.0 0.00 0.00 0.00 41 1004.7
20260509023059 63 350 0.0 0.0 0.00 0.00 0.00 37 1004.3
20260509023001 63 350 0.0 0.0 0.00 0.00 0.00 37 1004.0
20260509021509 64 350 0.0 0.0 0.00 0.00 0.00 35 1004.0
20260509020011 66 350 0.0 0.0 0.00 0.00 0.00 33 1004.2
20260509014532 67 350 0.0 0.0 0.00 0.00 0.00 29 1003.8
20260509013041 68 350 1.0 0.0 0.00 0.00 0.00 28 1003.6
20260509011541 69 10 2.0 0.0 0.00 0.00 0.00 28 1003.3
20260509010049 70 24 2.0 0.0 0.00 0.00 0.00 27 1003.3
20260509004600 71 7 4.0 0.0 0.00 0.00 0.00 25 1003.4
20260509003004 72 356 5.0 0.0 0.00 0.00 0.00 25 1003.3
20260509001527 73 1 4.0 0.0 0.00 0.00 0.00 24 1003.3
20260509000054 73 27 3.0 0.0 0.00 0.00 0.00 24 1003.3
20260508234502 73 334 5.0 0.0 0.00 0.00 0.00 24 1003.4
20260508233013 73 28 8.0 0.0 0.00 0.00 0.00 24 1003.4
20260508231531 73 302 8.0 0.0 0.00 0.00 0.00 24 1003.4
20260508230055 73 325 6.0 0.0 0.00 0.00 0.00 24 1003.2